Weather History for New Orleans Lakefront, LA

Change the Weather History Date:

Saturday, February 11, 2012

  Actual Average Record
Temperature  
Mean Temperature 44 °F 56 °F  
Max Temperature 52 °F 65 °F 81 °F (1999)
Min Temperature 36 °F 47 °F 27 °F (1980)
Degree Days  
Heating Degree Days 21 10  
Month to date heating degree days 63 116  
Since 1 July heating degree days 650 972  
Cooling Degree Days 0 1  
Month to date cooling degree days 18 11  
Year to date cooling degree days 81 27  
Moisture  
Dew Point 35 °F    
Average Humidity 56    
Maximum Humidity 83    
Minimum Humidity 28    
Precipitation  
Precipitation 0.00 in 0.20 in 1.61 in (1963)
Month to date precipitation 0.99 2.17  
Year to date precipitation 2.80 7.32  
Snow  
Snow 0.00 in - - ()
Month to date snowfall 0.0  
Since 1 July snowfall 0.0  
Snow Depth 0.00 in    
Sea Level Pressure  
Sea Level Pressure 30.27 in    
Wind  
Wind Speed 16 mph (North)    
Max Wind Speed 25 mph    
Max Gust Speed 31 mph    
Visibility 10 miles    
Events      
T = Trace of Precipitation, MM = Missing Value Source: NWS Daily Summary

Daily Weather History Graph

Daily Weather History Graph

Search for Another Location

Airport:

Trip Planner

Search our weather history database for the weather conditions in past years. The results will help you decide how hot, cold, wet, or windy it might be!

Date:

Astronomy

Feb. 11, 2012 Rise Set
Actual Time 6:43 AM CST 5:45 PM CST
Civil Twilight 6:19 AM CST 6:09 PM CST
Nautical Twilight 5:50 AM CST 6:38 PM CST
Astronomical Twilight 5:22 AM CST 7:06 PM CST
Moon 10:06 PM CST (2/11) 8:50 AM CST (2/11)
Length of Visible Light 11h 50m
Length of Day
11h 01m
Waning Gibbous, 82% of the Moon is Illuminated
Feb 11
Waning Gibbous
Feb 14
Last Quarter
Feb 21
New
Feb 29
First Quarter
Mar 8
Full

Hourly Weather History & Observations

Time (CST) Temp. Windchill Dew Point Humidity Pressure Visibility Wind Dir Wind Speed Gust Speed Precip Events Conditions
12:18 AM 51.8 °F - 46.4 °F 82% 30.13 in 10.0 mi NNW 17.3 mph - N/A   Scattered Clouds
12:53 AM 51.1 °F - 46.0 °F 83% 30.12 in 10.0 mi NNW 18.4 mph - N/A   Partly Cloudy
1:53 AM 52.0 °F - 46.0 °F 80% 30.14 in 10.0 mi NNW 20.7 mph - N/A   Overcast
2:39 AM 51.8 °F - 46.4 °F 82% 30.16 in 10.0 mi NNW 21.9 mph - N/A   Overcast
2:53 AM 52.0 °F - 46.9 °F 83% 30.14 in 10.0 mi NNW 25.3 mph - N/A   Overcast
3:21 AM 51.8 °F - 44.6 °F 76% 30.16 in 10.0 mi NNW 26.5 mph - N/A   Mostly Cloudy
3:53 AM 50.0 °F - 44.1 °F 80% 30.16 in 10.0 mi NNW 27.6 mph 34.5 mph N/A   Mostly Cloudy
4:08 AM 50.0 °F - 42.8 °F 76% 30.17 in 10.0 mi North 23.0 mph 28.8 mph N/A   Scattered Clouds
4:53 AM 48.9 °F - 42.1 °F 77% 30.18 in 10.0 mi North 28.8 mph 34.5 mph N/A   Mostly Cloudy
5:18 AM 48.2 °F - 42.8 °F 82% 30.21 in 10.0 mi North 23.0 mph - N/A   Scattered Clouds
5:38 AM 48.2 °F - 42.8 °F 82% 30.22 in 10.0 mi North 25.3 mph 35.7 mph N/A   Mostly Cloudy
5:53 AM 48.0 °F - 41.0 °F 77% 30.21 in 10.0 mi North 21.9 mph 34.5 mph N/A   Overcast
6:23 AM 48.2 °F - 39.2 °F 71% 30.23 in 10.0 mi North 24.2 mph 28.8 mph N/A   Mostly Cloudy
6:41 AM 48.2 °F - 39.2 °F 71% 30.23 in 10.0 mi North 24.2 mph 33.4 mph N/A   Mostly Cloudy
6:53 AM 46.9 °F - 39.0 °F 74% 30.22 in 10.0 mi North 26.5 mph 32.2 mph N/A   Mostly Cloudy
7:53 AM 46.9 °F - 39.9 °F 77% 30.23 in 10.0 mi North 20.7 mph 25.3 mph N/A   Overcast
8:53 AM 46.0 °F 37.6 °F 37.9 °F 73% 30.28 in 10.0 mi NNW 24.2 mph 32.2 mph N/A   Overcast
9:53 AM 48.0 °F - 36.0 °F 63% 30.31 in 10.0 mi North 19.6 mph 28.8 mph N/A   Scattered Clouds
10:53 AM 48.0 °F - 36.0 °F 63% 30.31 in 10.0 mi NNW 15.0 mph - N/A   Partly Cloudy
11:53 AM 50.0 °F - 34.0 °F 54% 30.31 in 10.0 mi NNW 21.9 mph 26.5 mph N/A   Clear
12:53 PM 50.0 °F - 30.0 °F 46% 30.29 in 10.0 mi North 24.2 mph 32.2 mph N/A   Clear
1:53 PM 51.1 °F - 26.1 °F 38% 30.27 in 10.0 mi NNW 25.3 mph 32.2 mph N/A   Clear
2:53 PM 51.1 °F - 26.1 °F 38% 30.28 in 10.0 mi North 20.7 mph - N/A   Clear
3:53 PM 51.1 °F - 26.1 °F 38% 30.30 in 10.0 mi North 18.4 mph - N/A   Clear
4:53 PM 48.9 °F - 25.0 °F 39% 30.31 in 10.0 mi North 21.9 mph 26.5 mph N/A   Clear
5:53 PM 46.0 °F 37.6 °F 21.9 °F 39% 30.33 in 10.0 mi North 24.2 mph 34.5 mph N/A   Clear
6:53 PM 44.1 °F 35.4 °F 23.0 °F 43% 30.36 in 10.0 mi North 21.9 mph 29.9 mph N/A   Clear
7:53 PM 43.0 °F 34.0 °F 21.9 °F 43% 30.40 in 10.0 mi North 21.9 mph 31.1 mph N/A   Clear
8:53 PM 41.0 °F 30.5 °F 23.0 °F 49% 30.44 in 10.0 mi North 26.5 mph 33.4 mph N/A   Clear
9:53 PM 39.0 °F 27.4 °F 24.1 °F 55% 30.46 in 10.0 mi North 28.8 mph 34.5 mph N/A   Clear
10:53 PM 37.9 °F 26.6 °F 24.1 °F 57% 30.48 in 10.0 mi NNE 25.3 mph 32.2 mph N/A   Clear
11:53 PM 37.0 °F 25.6 °F 23.0 °F 57% 30.49 in 10.0 mi NNE 24.2 mph 34.5 mph N/A   Clear